Temp
19 19 20 20 21 21 21 21 22 22 23 23 23 24 24 24 24 24 24 24 24 24 24 24 24 24 23 23 23 22 23 22 23 25 26 27 28 27 27 27 27 27 27 27 28 29 30 31 32 32 31 32 31 28 29 30 30 28 25 23 21 20 21 24 25 24 24 24 24 24 24 24 23 23 24 23 22 21 20 20 20 20 20 20 19 19 19 19
19 19 20 20 20 21 21 22 22 22 23 23 24 24 24 24 24 24 24 24 24 24 24 24 24 24 23 23 22 22 22 22 24 27 28 28 27 27 27 27 27 27 27 28 29 30 31 31 31 30 29 29 29 27 26 28 29 27 25 23 20 20 23 25 26 25 25 24 24 24 24 24 23 22 23 22 21 21 20 20 20 20 20 20 20 20 20 20
19 19 20 20 20 21 21 22 22 22 23 24 24 24 24 25 25 25 25 25 25 25 24 24 24 24 23 23 22 22 21 23 26 28 28 28 27 27 27 27 27 27 27 27 29 30 32 31 30 28 28 27 26 25 25 26 27 26 25 23 21 21 24 26 26 25 25 25 25 25 24 24 23 23 22 22 21 20 20 20 20 20 19 20 20 21 21 20
19 19 20 20 20 21 21 22 22 23 23 24 24 24 25 25 25 25 25 25 25 25 24 25 24 24 23 23 22 22 21 24 28 29 28 28 28 27 27 27 27 27 27 27 28 30 32 31 29 28 27 26 25 25 24 25 26 25 25 24 22 22 24 26 26 26 26 25 24 25 24 23 24 23 22 22 21 19 19 20 20 20 19 20 20 21 21 21
19 19 20 20 20 21 21 22 22 23 23 23 24 25 25 25 25 25 25 25 25 25 25 25 24 24 23 23 22 21 21 25 29 29 28 28 28 28 28 27 28 27 27 28 29 31 32 30 28 27 25 24 24 24 24 26 25 23 26 27 24 24 25 26 27 26 25 24 24 24 23 23 23 23 22 22 20 19 20 20 21 20 20 20 20 21 21 21
19 19 20 20 20 21 21 22 22 23 23 24 24 25 25 25 26 26 25 25 25 25 25 25 24 24 23 23 22 21 23 27 30 29 28 28 28 28 28 28 28 28 28 28 30 31 31 30 28 26 25 25 25 24 26 28 25 22 26 27 26 26 26 26 26 25 24 24 24 24 24 23 22 21 21 21 19 20 20 20 21 21 21 21 21 21 21 21
19 19 20 20 21 21 21 22 23 23 23 24 24 25 25 26 26 26 26 26 26 25 25 25 24 24 23 23 23 22 25 29 30 29 29 29 28 28 28 28 28 28 28 29 31 31 30 29 28 26 25 25 26 26 27 28 26 25 26 27 27 27 27 25 25 25 25 25 24 24 24 23 21 21 21 20 19 20 21 21 21 21 22 21 21 21 21 21
19 19 20 20 21 21 22 22 23 23 23 24 24 25 25 26 26 26 26 26 26 26 25 25 24 23 23 23 25 26 28 30 30 29 29 29 28 28 28 28 28 28 29 30 31 31 30 29 28 28 25 25 27 28 28 26 26 28 26 26 26 27 26 25 25 25 24 24 24 24 23 22 22 21 21 20 20 20 21 21 21 22 21 21 21 21 21 21
19 19 20 20 21 21 22 22 23 23 23 24 24 25 26 26 26 26 27 26 26 26 25 25 24 24 23 23 26 28 30 31 30 29 29 29 28 28 28 28 29 29 30 30 31 31 30 29 29 28 27 27 28 29 28 23 24 28 26 25 26 25 25 25 25 24 24 24 24 23 22 22 22 22 20 20 21 21 21 21 21 21 21 21 21 21 21 21
19 19 20 20 21 22 22 22 23 23 24 24 24 25 26 26 26 27 27 26 26 26 25 24 24 24 23 24 27 29 30 31 31 30 29 29 29 29 29 29 30 31 32 31 31 31 30 30 30 29 28 28 27 27 28 24 25 28 27 26 26 24 24 25 24 24 24 24 24 23 22 22 23 22 20 20 21 21 21 21 21 21 21 21 21 22 21 21
19 19 20 20 21 22 22 23 23 24 24 24 24 25 25 26 26 27 27 26 26 26 25 25 24 24 23 25 28 30 31 32 32 31 31 30 30 30 31 31 31 32 31 31 31 31 31 31 30 29 28 28 25 25 27 27 26 27 27 26 26 25 24 25 24 24 23 23 23 23 23 23 23 22 20 20 21 21 21 20 21 22 22 22 22 22 22 21
19 19 20 20 21 22 22 23 23 24 24 24 24 25 25 26 26 26 26 26 26 26 25 25 24 23 24 27 29 30 32 32 32 32 32 31 31 32 32 32 32 31 31 31 31 31 30 31 31 29 28 28 25 24 25 26 26 26 26 25 25 25 24 25 25 24 23 23 23 24 22 22 22 21 21 21 21 22 21 21 21 22 22 22 22 22 22 22
19 19 20 20 21 21 22 23 23 24 24 24 25 25 25 26 27 26 26 26 26 26 26 25 25 24 24 28 31 31 32 32 32 32 32 32 32 32 32 32 32 31 31 31 30 30 30 30 31 30 29 27 25 24 24 25 25 25 25 24 24 23 23 25 25 25 24 23 24 24 21 20 21 21 21 21 21 21 22 22 22 22 22 22 22 22 21 21
19 19 20 20 21 21 22 23 23 24 25 25 25 25 26 26 27 26 26 26 26 26 26 26 25 24 25 29 32 31 31 32 32 32 32 32 32 32 32 32 31 29 30 30 29 30 30 30 31 30 29 27 24 24 24 23 24 24 24 24 23 22 22 24 25 25 24 24 25 24 21 20 21 22 22 22 21 22 22 22 22 22 22 22 22 22 21 21
19 19 20 20 21 21 22 23 24 24 25 25 25 25 26 26 27 27 26 26 26 26 26 26 25 25 28 31 32 31 31 32 32 33 33 32 31 31 31 31 31 29 28 28 29 29 30 30 30 28 27 27 25 24 22 21 23 23 22 22 23 22 22 24 26 26 24 24 25 23 21 21 22 22 22 23 22 23 23 23 23 23 23 22 22 22 21 21
19 19 20 20 21 21 22 23 24 24 25 25 25 25 26 27 27 27 27 27 27 26 26 27 27 28 29 31 32 32 32 32 33 33 32 32 32 31 31 31 32 30 29 28 28 28 29 28 29 28 27 26 25 23 22 22 22 23 21 21 22 22 22 24 25 26 26 25 25 24 22 22 23 23 23 23 23 24 24 23 23 23 23 23 22 22 21 21
19 19 20 20 21 21 22 23 24 25 25 25 25 26 27 27 27 27 27 27 27 27 27 28 31 30 30 32 32 32 33 33 33 33 32 32 31 31 31 31 31 31 31 28 27 27 27 27 28 27 26 25 25 24 22 21 21 22 21 21 22 23 22 23 24 25 26 26 25 24 23 23 23 23 24 24 24 24 24 24 23 23 23 23 22 22 21 21
19 19 20 20 21 21 22 22 24 25 25 26 26 27 27 27 27 27 28 29 28 28 28 30 31 30 29 32 32 32 33 33 33 33 32 32 31 32 31 30 30 30 30 27 25 26 25 25 27 25 24 25 25 23 21 21 22 21 21 21 22 23 23 22 23 25 26 25 25 24 24 24 24 24 24 24 25 25 25 24 24 23 23 23 22 22 21 22
19 19 20 20 21 21 22 22 24 25 25 27 27 27 28 28 27 27 28 30 29 28 29 30 31 29 29 32 33 33 33 33 33 33 33 32 32 32 31 30 30 30 29 25 24 25 24 24 26 24 23 25 25 24 23 25 25 24 24 24 23 23 24 24 25 26 26 24 24 24 24 24 24 24 24 25 25 25 25 25 24 24 23 23 23 22 22 22
19 19 19 20 21 21 22 22 24 25 26 27 27 27 28 28 28 28 29 30 31 31 32 32 32 31 31 33 33 33 33 32 32 33 33 33 32 32 31 30 29 28 28 27 26 26 25 25 25 24 25 26 26 26 27 28 26 26 25 24 25 24 24 26 27 27 26 24 24 25 25 25 25 25 25 25 25 25 25 24 24 24 23 23 23 22 22 22
19 19 19 20 21 21 22 23 24 25 26 26 26 27 28 27 27 27 28 30 32 33 33 33 34 33 32 33 34 33 32 32 33 34 34 33 33 32 30 29 28 27 28 27 27 27 26 25 25 27 28 29 28 28 29 29 27 26 24 23 25 25 25 27 27 27 26 25 24 26 26 25 26 26 26 26 25 25 25 24 24 24 24 23 23 22 22 22
18 19 19 20 21 22 22 23 24 25 26 27 28 28 28 27 27 27 27 28 31 33 32 33 33 33 33 33 34 33 32 32 32 33 34 33 33 31 29 28 27 27 28 27 26 27 26 25 27 29 30 29 28 28 29 28 28 27 26 24 24 25 26 27 28 28 26 25 25 26 25 25 26 26 26 26 25 25 25 25 24 24 24 23 23 22 22 22
18 19 19 20 21 22 23 24 25 25 26 27 28 28 28 27 27 27 27 27 29 32 32 32 32 32 33 33 33 33 32 32 32 33 34 33 32 31 29 28 27 27 27 27 27 25 24 26 29 29 28 26 26 28 28 28 28 27 26 24 23 25 25 24 26 28 27 26 26 25 24 25 26 26 26 26 26 25 25 25 25 24 24 24 23 23 22 22
18 18 19 20 20 22 23 24 25 26 26 28 28 28 27 27 27 27 27 27 29 32 33 33 33 32 33 33 33 33 32 32 33 33 34 33 32 32 29 28 28 27 28 28 28 26 26 28 30 28 27 26 26 28 28 27 26 26 27 25 24 25 25 25 26 27 27 27 27 24 22 24 26 26 26 26 26 25 26 26 25 25 25 24 24 23 23 22
18 18 19 20 20 21 23 24 26 26 26 28 28 27 27 27 27 26 26 27 28 31 33 33 33 33 33 33 33 33 32 33 33 33 34 34 33 32 30 30 29 27 28 29 28 28 28 30 29 26 27 27 26 27 28 27 25 25 27 28 27 27 27 27 26 25 24 23 26 25 21 21 25 26 26 26 26 25 26 26 25 25 25 24 24 23 23 23
17 18 18 19 20 21 23 25 25 24 26 28 27 27 27 27 26 26 26 25 25 30 32 31 32 32 32 33 33 33 31 32 34 34 34 34 33 33 31 30 30 28 29 30 29 28 29 30 28 26 27 28 27 27 27 28 24 23 27 29 29 27 25 26 25 23 21 21 26 26 22 21 23 25 26 27 26 26 26 26 25 25 25 24 24 24 23 23
17 18 18 19 20 19 21 23 22 24 27 27 26 26 27 27 26 25 26 23 23 29 31 30 32 31 31 33 34 32 29 30 34 34 34 34 33 33 31 29 29 29 30 30 26 27 30 29 27 27 27 27 27 26 27 28 24 23 27 30 28 24 22 24 24 22 22 22 24 26 23 21 21 24 27 27 26 26 26 26 26 26 25 24 24 24 24 23
17 18 18 19 20 19 19 20 21 24 26 26 26 26 27 26 25 26 24 20 24 31 32 31 32 32 32 33 33 32 31 32 32 32 34 34 33 33 31 30 30 29 32 30 24 27 31 29 27 27 27 26 27 27 28 28 26 26 29 29 28 24 22 23 22 21 23 22 21 23 23 21 20 24 27 27 26 25 25 26 26 26 26 25 24 24 24 23
17 18 18 18 20 20 20 19 20 24 25 25 26 25 26 26 25 26 23 21 26 31 31 31 31 32 33 33 32 32 33 33 32 32 34 34 33 33 31 31 32 31 32 30 27 29 31 30 28 28 27 26 28 29 29 28 27 29 29 29 28 27 25 24 22 21 22 21 20 21 22 21 21 23 25 26 25 25 26 26 26 26 26 25 25 25 25 24
18 18 18 18 20 20 19 20 22 23 24 25 24 25 26 25 25 24 21 22 27 30 31 31 31 32 32 31 31 32 32 33 33 33 33 33 33 33 32 33 33 31 31 30 29 30 31 30 30 29 29 28 28 29 30 29 29 29 28 28 27 27 26 24 23 22 21 21 21 22 23 22 21 22 24 26 26 26 27 27 27 27 26 26 25 25 25 25
18 18 18 18 19 19 19 22 24 24 24 24 23 25 25 26 26 21 21 26 28 29 31 31 31 32 31 31 31 32 32 32 33 33 32 32 32 32 32 31 31 29 28 28 29 30 31 30 30 30 30 30 28 28 29 30 30 29 27 26 24 24 24 23 22 22 21 20 21 22 23 22 20 22 25 28 29 28 28 27 27 27 26 26 26 26 26 25
18 18 18 19 19 19 19 22 23 23 23 22 23 25 25 24 23 21 23 28 26 27 31 31 31 32 31 31 31 32 32 32 33 33 32 32 31 32 31 30 29 26 23 25 26 28 29 29 30 31 31 30 28 26 28 30 29 28 26 24 22 21 22 21 21 21 20 20 21 22 23 22 21 23 26 29 30 29 29 29 28 27 27 26 26 26 26 25
18 18 19 20 20 20 20 21 22 22 22 22 23 26 25 22 21 23 26 27 25 28 31 31 32 32 31 31 31 32 32 32 33 33 32 32 31 32 32 32 31 27 24 25 24 24 25 27 30 30 30 30 28 26 25 26 26 25 24 22 21 21 21 20 21 21 20 20 21 22 23 22 21 24 29 30 30 30 30 30 29 28 27 26 26 26 26 26
18 19 20 21 21 21 21 21 21 21 21 22 24 26 24 21 22 25 26 28 29 30 31 31 32 32 31 31 31 33 32 31 33 33 32 32 30 30 31 32 32 31 29 27 24 23 22 23 27 30 29 29 29 28 26 27 26 24 24 23 21 21 21 20 20 21 21 21 21 21 22 21 20 25 30 31 30 31 30 30 29 28 27 27 27 26 26 26
19 20 20 21 21 22 22 21 22 21 21 23 25 25 22 20 23 25 27 30 32 31 31 32 32 30 30 31 32 33 32 30 32 33 32 31 29 29 31 31 31 32 30 26 25 25 22 22 29 31 30 30 30 29 30 29 25 23 24 23 21 23 22 21 21 21 20 21 21 21 21 22 23 27 31 31 30 31 30 30 29 28 27 27 27 26 26 26
18 20 21 22 23 23 23 23 23 22 21 24 24 23 23 24 26 27 29 31 32 31 31 30 30 28 26 29 31 32 32 31 32 31 31 31 31 31 32 31 32 33 31 27 26 26 22 23 30 32 30 32 31 30 31 28 25 25 24 23 25 28 26 21 21 21 20 20 21 21 21 23 25 26 29 30 30 30 30 29 28 28 27 27 26 26 26 26
17 19 21 23 24 24 24 23 23 22 23 24 23 23 25 28 29 30 31 31 31 31 30 26 27 27 25 26 28 31 31 31 31 30 28 30 30 31 32 32 32 33 33 31 29 28 25 24 29 32 30 31 32 31 31 30 29 26 24 25 29 29 27 23 21 21 20 20 21 21 21 22 22 23 26 28 29 29 29 29 28 28 27 26 26 26 26 26
16 19 21 23 24 24 24 23 23 23 24 24 23 24 27 28 30 31 31 31 30 31 29 25 27 28 26 25 27 31 31 28 29 29 28 28 28 30 33 32 33 33 34 33 30 30 29 24 27 32 31 31 33 31 29 30 32 29 27 30 29 24 23 22 21 21 20 20 20 21 21 22 21 22 25 26 28 29 29 28 28 27 27 26 26 26 26 26
17 19 22 24 25 24 24 23 23 24 24 24 24 25 27 28 30 31 30 30 30 30 29 27 28 29 28 27 28 31 31 29 29 29 27 28 27 28 32 32 32 33 33 33 31 32 31 24 23 30 32 31 31 29 26 26 30 31 30 31 29 26 24 23 22 22 20 20 20 21 21 21 23 25 25 25 27 29 28 28 28 27 27 27 26 26 26 25
19 21 23 25 25 24 23 23 23 24 23 24 25 26 28 29 30 31 31 30 30 29 29 29 30 29 28 30 29 30 31 30 31 30 28 30 28 28 31 32 32 33 33 33 32 32 31 26 22 27 32 29 28 28 27 26 27 28 26 25 25 25 25 25 24 23 22 20 20 21 21 21 25 27 26 25 27 29 28 28 28 28 27 27 27 26 26 25
21 21 23 24 24 24 24 23 24 24 24 25 26 27 29 29 30 31 30 30 30 30 30 29 30 29 29 29 30 30 31 31 32 31 29 31 29 28 31 33 32 33 33 32 32 31 30 27 24 24 26 25 26 30 31 29 30 29 27 26 25 25 24 23 23 23 23 22 21 21 21 21 26 29 28 27 27 27 27 28 28 28 28 27 27 26 26 25
20 21 23 24 23 24 24 23 24 25 25 26 27 28 28 28 29 29 30 30 29 29 30 30 29 30 30 30 30 31 31 30 31 31 30 31 31 30 32 33 33 33 33 31 32 31 30 29 25 23 25 27 30 32 31 31 32 32 30 30 30 28 25 21 21 22 23 23 23 22 20 22 28 30 30 29 28 27 27 28 28 28 28 27 27 26 26 25
21 22 24 24 23 24 24 23 24 25 26 27 28 29 29 28 28 29 29 29 29 29 29 29 29 29 29 30 30 31 31 29 30 31 31 32 33 33 33 33 33 33 32 31 31 30 29 28 25 23 26 30 31 31 31 32 32 30 30 31 31 29 28 25 25 24 23 22 22 22 20 22 27 30 29 30 29 28 29 29 28 27 27 28 27 26 26 25
22 22 24 24 24 24 23 22 24 25 26 27 28 28 29 29 28 28 29 29 29 29 29 29 30 29 30 30 30 31 30 28 28 31 31 31 32 33 34 34 33 33 32 31 31 29 27 27 25 22 23 25 26 26 27 28 29 28 29 31 31 30 31 29 27 26 23 22 22 21 20 22 27 28 28 29 30 30 29 29 27 27 27 27 27 26 26 24
21 22 24 24 25 24 23 24 24 24 25 26 27 27 27 28 28 28 28 29 29 30 29 29 30 30 30 30 30 30 30 28 28 30 31 31 32 33 33 33 33 33 32 32 32 30 28 27 26 22 21 22 22 22 23 25 27 28 29 30 31 31 30 28 25 23 22 22 23 22 21 23 27 27 27 28 29 29 29 28 27 27 28 27 26 26 25 24
21 22 23 24 25 24 24 25 25 24 24 25 26 27 26 26 28 28 28 28 28 29 29 29 30 29 29 30 29 29 30 30 29 29 30 31 31 32 33 33 33 32 31 31 31 31 30 28 27 25 23 23 23 24 27 28 26 26 27 29 30 31 31 28 24 22 22 23 22 22 23 24 25 26 27 28 28 28 29 28 26 27 27 26 26 26 25 24
20 22 24 24 24 24 24 25 25 24 25 25 25 26 26 25 27 28 28 28 28 29 28 28 29 29 28 29 28 28 29 30 30 30 30 30 31 32 32 33 33 32 30 31 31 31 28 26 27 27 26 27 28 28 30 29 26 26 27 28 29 30 30 27 24 24 25 23 21 24 26 24 24 27 28 28 28 28 29 28 27 26 27 27 26 26 25 25
20 22 24 23 23 23 24 24 25 25 26 25 25 26 26 26 26 27 27 28 28 28 28 27 28 28 28 28 28 27 28 28 28 29 30 30 31 31 31 32 32 30 30 31 32 31 28 25 27 28 27 29 31 30 30 30 29 29 29 28 29 30 29 27 25 27 27 23 22 25 26 25 27 29 28 27 28 28 29 28 27 26 27 27 26 25 25 24
21 22 23 23 22 23 24 24 24 25 25 25 25 25 25 26 26 27 28 27 27 28 27 26 26 27 28 29 28 28 27 26 26 28 29 30 29 29 28 29 30 30 30 30 31 31 28 25 28 29 26 28 30 30 30 30 29 29 29 29 29 28 29 29 28 29 28 26 26 28 26 27 29 29 28 28 28 28 29 29 28 27 27 26 26 25 25 25
20 20 21 22 22 23 23 23 24 24 24 25 24 24 25 26 26 27 28 27 26 27 27 26 27 27 28 29 28 28 29 28 27 28 29 29 28 28 27 27 28 29 29 28 29 30 27 25 28 28 24 25 28 30 30 30 29 27 28 29 29 27 27 28 28 29 28 27 29 29 26 27 29 28 28 28 28 29 29 29 28 27 26 26 25 25 25 25
20 20 20 20 21 23 23 23 24 23 23 24 24 24 24 25 26 26 27 28 28 27 27 27 27 28 28 27 27 28 30 29 28 28 29 28 28 28 28 29 29 28 28 28 28 28 27 26 27 26 22 22 26 28 28 29 28 26 25 27 28 27 27 28 29 29 28 27 27 26 25 27 29 29 29 28 29 29 29 28 27 26 26 26 26 26 26 25
19 20 20 19 20 22 23 23 23 23 23 24 24 25 25 25 26 26 26 27 28 27 27 27 27 26 25 25 26 27 28 28 27 27 28 28 28 28 29 29 30 29 29 28 27 27 28 26 25 24 22 22 25 26 26 26 24 23 24 27 28 28 28 28 29 30 30 29 27 25 26 29 30 30 29 29 28 29 28 28 27 25 25 25 26 26 26 26
Height
803 801 798 795 793 791 788 787 785 783 782 781 780 779 778 777 776 775 774 773 773 771 771 770 769 769 768 767 766 765 763 762 762 760 759 757 756 757 757 757 757 757 757 757 755 754 750 746 743 740 742 743 746 754 754 748 746 757 771 786 799 803 797 784 777 780 783 782 780 780 779 782 785 784 782 783 790 792 794 795 795 797 797 798 800 800 800 800
804 802 799 796 794 791 789 787 785 784 782 781 780 779 778 777 776 775 774 773 772 771 770 770 769 769 767 767 766 765 763 762 761 759 756 756 756 756 757 757 757 757 757 756 754 750 747 745 743 743 750 754 756 761 763 757 753 766 777 788 802 800 786 775 772 773 776 780 780 779 779 780 785 787 786 791 797 795 798 800 798 800 800 800 799 799 801 800
804 802 800 797 794 792 790 787 786 784 783 782 780 779 778 777 776 775 774 773 772 771 770 769 769 768 768 767 766 765 764 762 761 757 755 755 756 756 757 757 757 757 757 757 755 750 746 744 745 751 758 765 767 767 768 764 761 768 775 790 799 790 779 770 770 774 774 776 778 779 780 781 785 786 788 793 798 799 803 804 801 804 804 802 800 799 799 799
805 803 800 798 795 793 790 788 786 785 783 782 780 779 778 777 776 774 773 773 771 771 770 769 768 768 767 766 766 766 764 765 761 754 755 755 756 757 757 758 757 758 758 757 755 750 744 744 749 755 764 772 772 770 773 768 766 772 772 782 789 782 778 771 768 772 772 775 778 780 782 786 785 785 789 791 800 807 806 804 802 804 805 803 802 800 800 800
805 803 801 798 796 793 791 789 786 785 783 781 780 779 777 776 775 774 773 772 771 770 769 769 768 767 767 766 767 765 766 773 762 751 755 756 756 757 757 758 758 758 758 757 755 747 744 747 754 760 769 776 777 777 775 764 768 781 772 769 776 777 778 771 766 770 774 778 781 782 786 789 786 787 791 793 804 810 805 803 801 801 803 802 802 802 801 801
805 803 801 799 796 794 791 789 787 785 783 781 780 778 777 776 775 774 773 771 771 770 769 768 767 766 766 766 766 765 770 773 758 752 757 755 757 757 757 758 757 758 757 756 751 746 747 750 759 767 773 776 778 779 770 758 767 783 774 764 769 770 773 772 769 774 777 779 782 783 784 786 790 794 795 797 804 805 801 801 800 800 801 801 802 801 802 802
806 803 801 799 796 794 791 789 787 785 783 781 780 778 777 775 774 773 772 771 770 769 769 767 766 766 766 765 766 765 767 763 752 754 756 755 758 757 758 758 757 758 756 754 749 749 752 754 762 768 776 780 775 772 765 758 763 773 773 767 769 768 770 775 775 776 777 779 780 780 783 788 794 798 798 801 804 802 800 800 800 801 801 801 802 802 803 803
806 803 801 799 796 794 791 789 787 785 783 781 779 777 776 774 773 772 771 771 769 769 768 766 766 765 766 766 765 765 762 757 753 755 756 756 758 757 758 757 757 757 754 753 750 751 755 760 764 766 778 780 770 765 762 769 769 765 773 774 771 771 773 777 776 777 779 781 781 781 786 791 794 796 800 804 803 801 801 801 800 801 802 802 803 803 803 803
806 803 801 799 796 794 791 789 787 785 783 780 779 777 775 774 773 772 771 770 769 769 767 765 766 765 766 764 764 767 761 753 754 755 755 757 757 758 759 757 757 755 752 752 751 752 756 762 763 763 772 771 765 762 763 785 784 765 773 777 774 778 779 779 779 780 782 782 783 786 791 793 791 795 803 805 802 802 801 802 802 802 803 803 803 803 804 804
806 803 801 799 796 794 791 789 787 784 782 780 778 776 775 774 772 771 770 769 768 768 766 766 766 764 765 763 764 769 759 751 755 755 755 757 757 758 757 756 756 752 749 750 751 753 754 758 759 757 763 763 767 767 764 782 780 764 772 775 774 782 783 781 783 783 784 784 785 790 793 793 789 795 808 806 801 803 802 803 803 803 804 804 804 804 804 806
806 803 801 798 796 794 791 789 786 784 782 780 778 776 775 773 772 771 770 769 768 767 766 765 765 765 764 763 766 766 755 751 755 754 756 757 756 756 754 754 753 751 750 751 754 754 753 754 754 757 763 766 774 776 769 770 770 768 773 776 777 781 784 783 784 785 786 789 789 788 792 793 792 798 807 804 801 802 803 805 804 803 804 802 803 804 804 806
806 803 801 798 796 793 791 789 786 784 782 780 778 776 774 773 772 771 770 769 767 767 766 765 766 764 763 763 763 760 753 753 755 754 755 755 753 753 752 753 751 752 753 754 755 755 755 753 752 761 766 767 776 782 778 771 772 775 775 782 785 783 788 785 783 785 786 791 788 785 797 802 800 804 805 801 802 801 803 805 804 803 803 802 803 804 805 806
807 804 801 798 796 793 791 789 786 784 782 780 778 776 775 773 771 771 770 769 767 767 765 765 765 763 766 765 757 754 753 753 755 755 754 753 751 751 753 753 751 753 754 755 758 757 758 755 753 760 763 769 782 783 778 775 779 782 781 787 793 793 793 785 781 783 785 789 784 786 809 816 807 804 802 801 802 801 803 803 802 803 802 802 804 805 806 807
807 804 801 798 796 793 791 788 786 784 782 780 777 776 774 772 772 770 769 768 767 766 765 765 764 764 768 763 754 754 755 753 754 753 752 752 752 753 754 753 753 757 758 758 761 760 760 757 754 759 763 771 780 777 779 786 786 787 788 790 796 803 801 788 781 782 786 788 780 788 812 817 807 804 801 800 801 801 802 802 802 803 802 803 804 805 808 808
807 805 801 799 796 793 791 788 786 784 782 779 777 775 773 772 771 769 769 769 767 767 765 763 763 764 766 759 752 755 755 753 751 750 752 753 754 755 756 756 756 760 763 763 763 762 761 760 760 767 770 771 775 783 794 799 792 792 802 802 796 802 801 788 780 780 787 787 780 789 808 811 805 803 799 798 799 798 800 801 801 802 802 803 804 805 808 808
808 805 802 799 796 794 791 788 786 784 781 778 776 774 773 772 770 769 769 767 767 767 765 764 761 762 767 760 752 755 754 751 750 750 752 753 755 756 756 757 756 758 763 766 766 764 764 764 765 768 772 776 782 791 798 802 799 798 808 811 800 800 802 791 783 780 781 783 784 790 802 806 802 800 797 795 796 795 797 800 800 802 802 802 804 805 808 809
808 805 802 799 797 794 791 788 786 783 780 778 776 774 772 771 769 768 767 766 767 765 764 763 757 759 764 757 754 756 749 749 751 750 752 754 756 757 756 758 759 758 759 767 769 768 770 771 770 773 776 782 785 790 802 808 807 804 808 809 798 797 803 799 791 783 778 784 789 791 796 800 798 797 795 793 793 793 796 799 800 801 801 801 804 806 807 808
808 805 802 800 797 794 791 788 785 783 780 777 776 775 772 770 769 768 767 766 765 765 767 762 758 769 770 755 754 754 747 750 751 749 753 755 756 756 757 761 763 761 763 773 777 774 779 778 776 783 786 786 785 795 809 803 797 802 806 804 795 791 797 801 796 786 782 787 791 792 795 797 795 794 794 792 791 792 794 796 797 799 801 802 803 806 807 808
808 805 803 800 797 795 792 789 786 783 780 777 776 774 771 769 768 767 766 765 767 771 773 765 762 773 771 754 749 748 746 750 751 750 751 751 754 755 757 762 764 766 772 784 786 780 783 785 785 792 794 787 785 792 793 783 783 789 788 788 789 790 790 791 789 781 782 791 794 793 794 796 796 794 794 792 789 790 793 793 796 799 800 801 802 805 807 808
809 805 803 800 798 795 792 789 786 783 780 777 775 772 773 773 773 771 767 763 762 761 760 755 754 759 758 749 746 749 750 752 752 748 747 749 752 754 758 763 768 773 777 784 786 779 781 789 790 791 789 780 779 780 773 770 776 780 784 785 779 782 786 783 782 779 780 791 796 791 790 792 793 793 792 791 790 791 793 796 797 799 800 801 802 805 807 808
809 806 803 800 798 795 793 790 787 784 781 778 775 774 778 780 783 782 774 766 755 749 750 746 745 751 750 746 744 748 752 753 750 744 746 748 748 757 764 767 777 782 778 780 781 776 779 789 787 780 772 767 770 770 765 767 773 779 790 790 776 777 782 778 778 778 778 789 792 786 788 792 789 789 789 789 793 793 793 796 798 798 799 800 802 805 807 807
810 807 803 801 797 795 793 790 788 785 782 779 777 777 779 780 783 782 779 777 760 749 752 747 747 750 747 746 745 746 752 755 751 745 745 747 749 761 768 771 783 784 776 780 782 782 786 786 779 769 762 765 770 768 766 768 771 775 779 782 781 778 779 778 776 774 778 786 787 784 791 793 788 786 787 787 791 792 792 794 795 797 798 800 802 805 806 808
811 807 804 801 797 795 793 790 788 786 783 781 779 779 780 780 780 778 779 783 770 754 752 753 755 753 748 748 745 746 755 756 754 746 740 747 752 758 769 777 783 783 779 781 782 788 795 783 769 765 767 777 779 771 771 772 773 775 775 780 785 781 782 787 780 774 777 780 783 791 794 790 787 787 786 785 788 790 790 790 791 794 797 798 800 802 805 808
811 808 806 801 798 795 791 790 787 786 785 782 781 782 782 782 780 779 779 780 773 758 750 749 750 751 748 746 744 749 757 753 751 746 738 748 753 754 768 775 776 783 780 777 779 784 787 774 764 771 776 781 783 775 774 777 778 779 777 778 782 782 782 783 781 778 779 778 780 792 800 792 786 789 788 785 787 789 788 789 791 793 795 796 797 800 803 805
811 809 806 802 800 795 791 790 787 787 785 782 783 783 783 783 780 780 781 785 779 760 749 748 747 748 744 744 746 747 752 750 747 744 738 743 750 755 765 765 772 787 781 773 779 780 778 768 766 779 780 778 783 782 777 778 782 781 775 773 774 778 780 778 782 787 794 796 782 785 810 808 788 787 790 786 788 791 788 789 793 793 794 796 798 800 801 803
812 810 806 804 802 795 792 789 788 788 785 783 785 784 784 783 781 781 784 794 788 764 756 756 753 752 746 746 746 744 756 755 740 738 739 742 745 750 762 766 771 782 775 770 775 776 773 766 770 781 780 778 781 783 778 776 787 789 776 769 769 779 790 785 786 795 805 809 787 780 809 815 795 788 788 785 788 791 790 791 792 792 795 796 798 800 800 802
812 810 807 805 802 800 796 792 792 789 785 786 786 785 785 783 783 782 788 809 798 766 760 760 754 754 749 746 743 751 770 762 741 740 741 744 744 745 761 772 773 774 765 767 780 777 768 769 777 780 779 781 781 783 778 773 790 794 774 767 772 793 810 798 795 804 802 802 795 786 798 812 806 793 783 783 789 792 791 792 791 790 793 795 796 798 799 801
812 810 808 805 803 803 801 798 796 790 788 790 786 787 786 783 785 783 800 827 801 759 756 757 750 749 745 743 744 752 759 753 755 752 737 740 746 748 762 768 769 770 759 766 785 777 764 771 780 780 782 786 780 777 774 773 786 784 768 769 774 790 804 796 800 807 799 806 815 801 796 813 813 792 780 783 789 793 793 790 789 789 790 793 795 797 797 799
812 810 808 805 803 802 801 800 797 792 792 790 788 789 785 784 786 786 809 825 788 754 753 754 751 751 748 749 751 752 748 747 758 751 736 743 746 748 761 759 758 765 758 765 780 772 764 768 772 777 783 784 777 770 768 774 781 772 766 772 773 779 789 793 802 806 805 814 820 807 801 813 812 791 783 788 789 792 790 786 786 785 787 791 793 794 795 797
811 810 808 805 803 801 801 799 796 795 792 790 790 787 784 788 790 803 826 815 777 758 753 753 757 754 755 761 760 756 752 750 749 744 743 748 745 746 752 748 750 762 766 769 774 768 762 761 763 770 773 773 772 768 765 769 771 769 774 779 779 779 783 792 797 800 814 823 813 800 795 807 814 795 783 784 783 783 783 784 784 782 785 789 790 791 792 794
810 809 808 806 804 803 801 797 794 794 793 792 790 785 788 791 794 817 825 791 769 766 756 756 759 753 757 766 764 758 756 752 745 749 755 753 753 753 755 757 759 770 778 777 774 769 765 768 767 764 762 763 771 773 769 764 763 771 781 786 793 793 789 797 798 798 827 843 825 804 791 803 821 806 784 775 769 771 776 779 782 782 785 788 789 790 789 792
810 808 807 805 804 803 801 797 794 794 793 791 790 786 793 802 807 815 800 774 776 776 761 760 759 755 758 762 762 757 755 752 743 749 757 758 762 759 760 768 773 784 791 783 780 778 775 776 768 762 761 762 775 784 776 767 769 779 786 791 806 810 806 816 813 808 833 843 826 813 801 804 815 799 779 769 762 765 768 770 776 779 783 786 787 789 787 789
809 806 805 804 803 801 799 798 796 796 793 791 791 788 796 816 818 800 780 775 780 772 760 758 753 754 759 762 763 754 754 756 747 749 754 755 763 760 755 758 762 778 786 780 785 788 789 786 770 765 767 764 773 787 787 782 784 794 799 806 822 824 826 837 826 815 831 832 818 811 803 808 816 792 768 764 762 761 762 764 770 774 780 785 785 787 787 787
807 805 804 802 801 800 797 797 797 796 794 792 793 794 807 824 812 786 776 773 766 762 762 759 754 757 760 762 760 749 754 759 748 749 755 757 766 766 761 758 756 763 768 774 783 789 803 807 783 769 769 767 771 780 783 782 788 798 798 806 824 827 832 843 830 820 830 826 814 812 807 816 823 792 761 759 760 757 759 762 767 773 778 782 783 786 787 788
806 803 803 800 799 798 796 797 797 795 796 793 794 802 815 820 801 783 776 762 754 760 761 757 760 767 766 762 756 745 750 758 749 751 758 761 768 766 763 764 758 757 765 777 780 779 797 801 774 760 762 763 769 771 768 775 792 799 793 800 811 807 813 826 820 818 831 828 818 819 815 806 799 777 759 760 760 759 762 764 769 775 778 781 784 786 787 789
805 802 801 799 797 796 796 798 796 796 795 794 801 807 805 798 786 776 768 756 755 759 761 763 767 773 773 768 763 753 750 755 755 760 761 758 762 761 759 759 753 753 760 770 774 776 789 787 763 758 762 757 761 765 762 773 790 792 792 797 788 775 787 809 814 817 833 836 822 817 813 798 788 781 769 764 765 764 765 769 773 776 778 782 784 785 787 789
805 802 800 797 795 795 796 796 796 796 795 796 805 805 792 781 771 764 762 759 758 759 767 775 772 772 775 771 766 760 756 757 758 764 765 760 760 758 755 754 748 748 749 754 765 770 778 783 766 759 765 757 751 758 759 761 773 785 790 783 772 771 781 797 815 825 836 839 823 811 810 805 806 802 782 772 772 770 769 772 774 776 780 784 784 785 787 788
805 803 799 794 794 795 795 796 796 795 795 799 805 799 787 777 765 758 760 761 761 764 774 781 773 768 772 771 766 758 757 762 762 765 767 765 764 758 753 754 747 745 743 746 760 762 765 782 774 756 761 760 750 758 767 761 758 769 774 764 769 789 797 801 813 822 838 849 836 819 810 804 806 801 788 783 779 773 774 774 774 778 782 784 785 786 787 789
806 804 798 791 792 794 795 796 794 794 798 803 804 795 784 777 765 759 761 763 765 769 776 777 771 770 772 769 766 760 757 761 762 765 767 766 769 763 754 754 750 745 742 745 757 757 758 783 788 764 756 759 757 764 779 778 763 760 764 762 767 780 789 796 798 803 829 852 844 827 816 806 798 789 789 792 781 772 775 775 774 779 781 782 785 785 787 790
805 804 798 790 792 795 794 794 794 797 801 800 796 787 777 772 765 759 760 764 768 770 774 774 768 772 775 768 764 762 760 758 755 760 765 761 767 768 755 753 753 746 742 746 753 755 759 779 790 774 759 764 770 769 775 781 776 774 780 785 786 783 780 784 786 787 807 832 835 828 823 809 789 778 783 788 779 770 773 774 773 776 779 780 782 784 787 790
804 805 798 790 793 794 792 796 797 796 797 793 788 782 774 769 765 761 760 764 767 765 766 771 769 770 772 769 766 763 762 761 753 756 762 758 763 768 754 748 751 746 746 753 755 757 764 773 781 778 771 772 772 764 762 766 767 770 776 780 784 784 783 793 801 789 784 800 810 814 822 808 779 768 772 775 774 771 772 773 772 773 776 778 780 783 786 790
806 804 795 789 793 793 793 799 796 792 793 789 781 775 772 771 770 768 765 765 769 766 763 768 770 770 769 768 765 761 762 765 760 758 760 755 756 760 750 744 746 744 749 758 757 756 761 768 778 780 772 768 763 756 757 756 754 757 761 762 765 768 777 797 809 795 781 785 786 797 822 813 776 763 767 768 771 772 769 768 770 774 774 775 779 782 786 790
803 799 791 788 791 790 796 803 797 791 789 782 772 767 768 771 773 772 769 768 770 770 769 769 769 770 770 767 766 763 762 766 764 759 758 754 749 746 741 740 744 745 751 759 759 759 763 770 781 782 770 761 756 755 755 752 754 762 761 757 760 762 765 776 782 779 783 791 792 807 829 814 777 764 765 764 765 767 766 764 770 776 775 774 778 782 785 790
800 796 789 788 789 790 798 804 798 792 785 778 775 772 769 770 772 772 773 771 769 769 772 772 768 769 768 765 766 764 763 769 768 760 759 758 749 739 735 738 743 748 751 756 760 766 773 776 781 790 791 782 777 780 777 766 765 772 767 760 761 758 756 762 765 770 786 793 793 810 824 804 775 768 767 763 762 764 765 766 769 774 775 777 780 782 785 790
801 798 790 786 786 789 794 794 792 792 788 782 781 779 777 775 772 771 772 770 767 766 771 771 766 766 764 763 766 765 763 769 771 764 761 760 752 742 737 738 743 748 750 751 752 759 772 777 778 793 807 807 805 804 795 781 774 774 769 763 761 757 757 765 769 778 793 790 782 797 808 792 775 772 770 767 766 766 766 767 770 771 772 777 781 783 785 789
803 799 791 786 784 787 789 786 788 792 791 788 785 781 783 783 774 768 771 773 769 765 768 769 765 766 767 766 769 770 765 764 766 766 765 763 757 749 742 739 741 747 751 751 751 757 770 775 775 782 791 793 794 787 776 773 776 776 771 766 762 759 758 765 775 784 789 786 785 790 789 784 781 778 773 769 768 768 767 769 772 772 773 776 779 782 785 788
805 799 791 788 788 789 789 786 786 789 786 787 787 781 782 785 779 771 769 772 770 767 770 770 768 772 774 772 775 776 770 765 764 765 766 763 757 750 745 743 744 748 752 752 752 760 774 780 776 775 776 774 772 768 765 769 774 772 768 764 761 760 759 766 778 779 775 783 793 785 775 779 780 773 770 769 768 768 767 767 770 772 774 775 776 780 784 788
803 796 787 788 791 790 788 786 784 784 783 784 785 782 781 783 783 778 773 771 770 769 774 777 774 774 774 773 777 779 776 773 770 766 764 761 759 757 754 750 749 752 755 754 751 758 775 782 775 772 774 768 764 763 763 766 768 764 762 761 759 759 759 762 769 767 766 779 787 777 772 776 770 765 768 767 765 766 764 763 766 769 772 774 776 781 784 788
800 796 789 788 791 787 785 785 783 782 783 783 785 785 783 782 782 778 771 773 775 771 773 783 782 776 772 769 772 777 778 780 780 774 767 764 765 768 770 766 759 755 758 761 757 757 772 780 773 772 776 770 765 764 762 763 765 763 761 762 763 765 761 758 763 764 765 771 770 767 771 768 760 761 764 760 760 762 759 759 763 767 771 774 778 782 784 787
801 800 796 793 791 786 785 785 784 784 784 784 787 788 784 782 783 776 769 772 780 776 773 779 779 773 770 769 770 773 770 770 774 772 768 770 771 771 774 774 768 764 765 769 767 764 774 783 775 775 784 781 769 764 762 763 765 765 765 764 765 770 769 765 766 766 765 766 762 762 770 767 759 759 759 757 757 758 758 760 763 765 769 773 778 780 781 783
802 801 800 800 796 789 787 786 785 788 789 787 788 787 786 785 781 777 771 766 770 777 776 776 774 770 769 771 772 769 761 761 767 766 763 767 769 768 768 766 766 770 771 773 774 771 776 784 779 781 796 794 776 770 770 766 765 769 772 770 769 772 771 766 763 760 762 766 766 766 771 768 759 755 757 758 757 757 760 761 762 765 768 771 776 778 779 781
803 801 800 802 800 792 788 786 785 790 791 786 782 781 783 783 777 777 779 769 763 768 771 771 774 776 778 781 778 770 763 765 768 764 761 763 763 762 762 760 760 765 768 773 779 776 776 784 785 788 800 796 782 779 778 776 783 787 778 770 768 769 767 764 760 756 756 760 765 769 766 758 752 752 756 759 758 758 759 758 760 765 767 768 772 773 775 777
Wind_Speed
34 34 34 32 29 26 24 23 21 19 17 14 12 9 7 6 6 6 6 6 7 8 9 10 11 12 12 14 15 16 17 15 11 11 9 2 3 2 0 3 5 6 5 7 12 13 12 12 10 6 5 6 6 7 12 9 4 4 4 4 2 1 2 2 1 5 6 6 6 6 6 7 9 10 8 10 13 14 13 12 12 13 11 11 9 6 6 6
35 35 35 34 31 27 24 22 21 19 16 14 12 10 8 8 7 7 7 8 8 9 10 10 11 12 13 14 15 16 16 13 13 14 5 1 1 1 3 3 5 6 5 9 12 12 13 8 12 19 11 7 8 8 11 8 5 4 2 4 3 2 4 1 4 7 7 8 8 8 7 7 9 9 7 9 12 12 12 10 11 13 11 9 8 6 8 8
34 35 35 35 33 28 24 22 21 19 17 14 12 10 9 9 9 9 9 9 9 10 11 11 12 12 13 14 14 14 14 12 12 6 3 2 1 1 3 3 5 6 7 11 12 16 15 11 21 20 11 8 7 7 9 6 2 4 2 4 3 5 5 5 7 8 8 9 10 10 10 10 10 8 7 10 14 13 11 9 10 12 10 8 7 8 11 11
34 34 35 35 34 30 25 22 21 20 18 15 12 11 10 10 10 10 10 10 11 12 12 12 12 13 13 13 13 12 9 9 4 6 6 2 2 1 2 2 3 5 8 11 15 20 10 17 19 14 9 7 5 5 5 8 2 4 2 5 8 7 2 5 9 10 9 10 11 11 12 11 11 9 7 9 12 11 10 8 10 11 9 7 7 7 10 13
33 34 35 35 35 31 26 23 21 21 19 16 14 12 11 11 11 11 11 11 12 13 13 13 13 14 13 13 12 9 6 4 4 8 5 2 2 1 2 1 2 4 8 11 17 16 8 17 13 9 7 2 4 4 6 8 5 3 1 8 10 7 6 6 8 11 12 12 12 11 12 10 10 11 10 11 10 8 8 8 10 10 8 7 7 8 9 11
33 33 34 34 35 33 27 23 22 21 20 18 15 12 12 12 12 12 12 12 13 13 13 13 14 14 12 13 10 4 6 2 6 6 6 3 1 0 0 0 3 5 7 13 15 9 9 12 9 4 3 2 8 5 5 1 10 3 1 10 8 7 8 8 9 13 13 12 11 10 11 12 12 13 12 13 12 8 9 8 7 8 8 8 8 9 9 10
33 33 33 34 34 33 29 24 23 23 22 19 15 13 13 13 13 13 13 13 13 13 13 13 14 13 12 12 7 6 7 2 7 6 5 2 1 1 1 2 4 6 11 15 7 6 8 6 6 1 3 2 10 6 4 5 7 4 5 10 9 9 11 11 11 13 13 12 11 11 12 13 14 13 11 13 11 9 9 7 7 9 10 9 9 9 9 10
32 33 33 33 33 33 30 26 24 24 24 21 16 13 12 13 14 13 13 13 12 12 12 13 13 12 11 8 5 8 4 5 8 5 2 1 1 2 1 4 6 9 13 8 7 7 5 5 4 1 2 1 8 6 5 7 4 5 8 9 8 10 12 12 11 13 14 11 11 13 15 16 15 13 12 12 10 8 6 6 7 9 9 9 9 9 9 10
32 33 33 32 33 33 31 27 24 23 24 23 17 13 12 12 12 12 12 11 11 11 11 13 11 11 10 4 7 6 3 8 6 2 1 1 2 2 3 6 7 12 10 5 9 5 2 3 2 2 2 3 6 6 7 7 2 6 10 8 8 11 13 11 11 14 12 8 11 14 15 14 13 12 11 10 10 8 6 7 7 8 8 8 8 9 9 10
32 33 32 32 32 32 31 28 24 23 25 25 19 13 11 10 10 11 10 10 10 10 11 12 9 9 7 5 9 3 6 6 5 3 1 1 3 5 7 7 6 12 6 8 7 5 3 4 5 3 5 2 4 7 8 6 2 9 10 7 10 12 11 11 12 13 10 9 11 12 12 11 9 8 8 8 8 7 8 6 4 6 9 8 8 8 9 10
32 32 33 32 32 32 31 28 25 23 24 25 21 14 11 9 10 10 10 10 9 8 10 9 8 8 6 9 9 1 4 3 3 2 2 1 4 4 6 6 6 7 6 9 6 7 6 5 6 3 3 6 9 9 9 9 9 10 8 7 10 13 11 10 11 11 10 8 9 12 13 12 9 9 9 9 7 7 8 6 4 7 8 8 8 8 8 9
31 32 33 32 32 32 32 30 25 23 24 25 22 14 9 8 9 10 10 9 7 7 9 8 7 6 6 10 3 4 3 3 3 2 2 2 5 1 6 5 2 5 10 6 4 6 6 5 2 3 5 6 7 6 8 13 11 9 8 6 7 9 9 9 9 11 9 8 10 10 11 11 9 11 11 9 7 7 8 7 7 8 7 7 8 7 8 9
31 32 33 33 32 31 32 30 25 23 23 24 23 14 8 6 7 10 11 9 8 8 8 8 7 4 6 5 5 4 1 4 3 1 1 4 4 7 7 5 4 8 6 4 7 6 6 9 5 5 7 5 5 4 5 10 7 5 6 5 3 2 6 8 8 12 11 10 10 5 4 8 8 10 10 8 8 8 8 9 8 7 6 7 7 7 8 9
31 31 33 32 32 32 32 30 25 23 22 23 23 14 8 6 8 11 12 11 9 7 7 8 7 2 4 1 6 3 2 1 3 2 2 4 8 9 8 8 8 9 4 9 9 4 3 10 7 4 5 6 7 4 4 6 6 4 3 2 1 0 4 6 7 10 9 7 7 4 3 6 8 9 10 9 8 8 8 9 8 7 6 7 7 8 9 9
31 31 32 32 32 32 31 30 26 23 22 23 21 14 9 8 10 12 13 12 9 8 9 9 6 4 5 2 6 4 2 5 4 2 5 8 7 5 5 8 7 11 9 8 5 3 7 9 7 2 5 6 7 6 4 2 2 3 1 1 1 1 3 7 6 6 6 8 7 6 5 6 9 10 10 9 9 9 9 8 8 7 7 7 7 8 8 8
31 31 31 32 32 31 32 30 26 23 22 22 19 12 9 9 11 13 14 13 10 9 8 6 6 9 6 2 8 4 5 4 2 2 4 8 8 5 2 4 5 8 9 7 10 11 17 12 6 4 4 4 5 4 1 2 2 2 1 2 3 2 2 5 7 5 6 8 8 6 5 7 9 10 11 10 10 9 9 9 8 7 6 7 6 7 8 8
30 30 31 31 32 31 31 30 25 22 22 21 17 11 8 9 11 12 13 11 10 8 7 8 9 11 4 3 4 7 4 1 3 0 6 6 7 5 3 3 6 7 9 14 19 12 13 11 4 4 3 2 1 1 2 1 3 4 3 3 5 4 3 5 6 6 5 4 7 7 6 8 10 11 11 10 10 9 9 9 8 7 6 6 6 7 7 7
30 30 30 30 31 31 31 29 24 22 23 19 15 12 10 11 13 13 12 8 5 5 8 10 11 8 3 4 4 3 1 2 3 3 3 4 4 2 7 11 10 9 9 12 13 5 5 6 3 3 1 2 2 3 3 0 2 5 6 4 5 5 5 6 6 7 7 4 7 7 7 10 12 12 10 9 10 9 9 8 8 8 6 6 7 7 7 8
30 30 30 30 31 31 30 29 23 21 23 17 16 16 12 12 12 11 10 7 5 5 6 6 9 6 2 1 1 2 1 2 2 5 4 5 5 5 12 15 9 9 7 3 1 3 1 3 2 2 4 4 4 8 7 1 6 9 9 5 5 5 6 8 8 8 7 6 6 6 7 11 11 11 10 9 9 8 9 8 7 7 6 6 7 8 8 8
30 30 31 30 30 30 29 26 21 20 21 19 22 18 9 8 6 4 6 9 8 6 6 6 10 6 4 2 2 2 2 1 6 7 2 2 1 6 11 12 8 7 3 2 4 5 2 3 2 3 5 6 10 13 8 2 8 8 5 4 5 6 7 9 8 8 6 4 6 6 7 11 11 11 10 9 8 7 8 7 6 6 6 6 7 9 9 8
31 31 31 31 30 30 28 24 18 17 18 20 22 12 4 7 5 4 5 8 7 5 9 5 5 4 5 5 3 3 6 6 8 5 3 1 2 5 6 8 6 5 1 5 5 2 3 3 3 5 3 1 4 4 3 4 6 6 4 1 3 7 8 9 8 10 7 2 6 9 8 9 9 10 10 9 8 6 6 6 6 7 6 6 7 10 10 8
31 31 32 31 30 30 27 21 15 14 15 16 14 7 8 11 8 8 6 8 9 4 8 6 2 4 1 6 4 3 10 7 6 5 6 1 1 3 5 6 1 4 3 3 3 2 3 2 3 3 7 8 6 6 6 7 7 5 3 1 4 5 6 9 8 9 7 1 4 7 6 7 8 8 9 9 7 5 6 6 6 7 6 7 8 9 10 9
31 32 32 31 31 30 25 18 12 10 12 11 10 10 10 11 11 11 6 9 8 5 8 6 5 8 6 5 6 6 9 8 6 7 10 1 2 6 9 4 4 2 4 3 1 3 2 4 8 8 11 10 7 5 4 5 5 4 3 3 5 3 1 5 6 7 6 2 4 6 2 6 8 8 7 8 8 6 8 8 7 7 6 7 9 10 10 9
30 32 32 31 32 30 23 17 11 8 10 8 8 11 12 12 13 14 7 7 7 5 7 7 8 11 6 3 2 6 7 7 7 2 10 1 4 5 8 4 5 4 3 3 2 4 3 7 13 14 12 8 6 5 3 2 2 3 2 2 5 4 1 4 7 6 3 2 6 6 1 4 6 8 7 7 8 8 8 8 8 8 7 7 9 10 10 9
30 31 31 30 30 30 23 14 9 12 14 9 7 11 13 13 13 14 6 6 7 5 6 6 7 6 2 4 3 5 8 7 5 1 4 1 3 1 5 4 1 1 5 1 1 4 4 8 11 9 6 4 4 5 5 4 2 3 3 5 5 7 4 7 9 5 2 1 4 5 2 2 5 7 7 7 8 7 7 8 8 9 8 8 8 9 9 10
29 29 30 28 28 31 22 8 11 20 17 8 10 13 14 12 14 12 4 5 5 4 5 6 6 2 1 4 5 6 8 6 5 2 2 2 2 2 2 3 2 3 5 1 1 2 3 7 10 6 5 5 3 3 5 5 3 1 6 6 7 12 10 7 9 3 1 2 2 1 1 2 4 6 7 8 8 8 8 8 8 9 9 8 8 8 8 9
29 28 29 26 26 29 18 8 18 21 10 9 14 15 13 12 13 9 3 5 4 2 3 5 5 2 2 4 5 6 2 2 2 3 0 2 3 2 1 4 2 4 5 2 1 1 1 7 10 5 5 5 3 2 4 5 3 3 8 7 8 19 13 7 7 3 2 4 2 1 0 1 2 5 9 9 8 9 8 8 8 8 9 9 9 9 9 10
29 27 27 25 24 23 14 12 19 15 9 13 15 13 12 12 11 5 3 4 1 1 2 4 3 1 4 3 5 10 3 2 3 4 4 4 4 3 4 5 4 5 5 3 2 3 2 5 9 3 4 4 4 4 5 5 5 4 8 7 7 16 11 3 2 1 2 3 2 1 1 0 2 5 8 9 9 9 9 9 10 10 10 11 10 11 10 11
29 26 25 25 23 17 14 15 14 12 13 15 15 14 13 12 9 4 4 3 1 2 1 2 2 5 6 3 5 11 8 3 3 4 5 4 4 4 7 1 3 4 1 6 6 4 4 6 9 2 2 1 3 4 5 3 3 6 10 7 4 8 8 5 3 1 1 1 2 5 5 1 2 6 8 8 8 8 9 9 9 11 12 11 11 11 11 10
28 25 23 25 22 17 17 15 10 11 15 14 16 17 13 9 5 4 4 2 1 3 3 2 2 7 9 6 6 8 9 5 4 2 3 5 6 7 4 3 3 3 6 7 6 2 5 4 8 4 1 1 1 5 5 1 2 6 8 6 4 3 3 3 2 2 1 1 1 5 8 3 1 4 5 6 8 8 8 9 9 11 12 12 11 10 11 9
27 23 22 23 21 18 16 12 7 13 14 15 18 15 9 5 4 5 3 1 2 2 4 4 3 5 10 9 7 8 8 10 9 5 3 4 6 7 5 4 1 3 3 2 3 2 4 1 4 4 1 4 7 6 6 2 2 4 3 3 4 2 0 1 2 2 3 2 6 5 2 4 2 1 3 4 10 12 10 9 11 12 13 12 10 10 10 9
25 23 20 18 18 17 13 11 14 18 16 17 16 9 6 4 4 6 3 2 2 2 2 5 5 5 7 8 7 7 6 8 7 5 3 5 5 5 4 2 1 2 2 1 1 2 3 6 4 5 2 4 7 0 5 2 2 4 3 3 4 2 1 2 1 2 3 2 3 7 2 4 1 5 7 4 9 11 10 10 11 13 13 12 11 10 9 10
25 22 19 14 14 16 15 14 16 17 16 17 11 4 4 4 5 7 4 2 1 2 4 7 6 7 7 7 8 8 5 5 3 3 3 5 4 6 5 3 6 6 3 1 3 3 2 6 7 3 5 5 6 1 2 2 5 6 6 5 4 4 4 4 3 3 4 3 2 4 4 1 4 2 5 6 7 7 9 11 12 13 13 12 12 10 8 9
24 20 17 14 13 15 14 13 13 13 15 12 6 4 5 5 5 7 7 4 3 3 5 9 3 5 7 7 8 8 6 6 6 4 3 4 4 5 3 2 6 7 4 2 1 1 2 3 5 3 3 5 5 3 1 1 4 4 2 1 1 3 3 2 4 4 5 2 3 2 3 2 3 3 4 7 7 5 7 12 12 12 13 11 10 10 9 8
22 18 16 15 14 13 11 10 9 10 10 7 5 5 6 5 6 7 7 5 2 4 7 6 3 5 6 6 9 8 4 3 4 4 4 5 4 4 2 3 7 6 4 3 2 3 2 1 3 1 4 4 6 6 3 3 4 5 3 1 2 2 3 2 2 5 5 2 2 1 1 1 3 4 4 5 7 6 8 13 13 12 13 10 9 10 9 9
21 18 14 13 12 8 6 6 6 6 7 5 4 6 6 6 7 5 3 4 3 2 5 6 5 7 5 5 8 8 4 4 3 3 5 6 5 5 3 3 6 5 2 3 2 2 2 2 3 5 6 5 4 5 6 3 3 4 4 2 4 2 4 1 1 6 4 1 2 1 1 0 2 3 5 1 5 7 9 13 12 12 13 11 9 9 9 9
21 16 13 13 10 5 3 5 5 5 6 5 5 6 6 7 10 6 3 4 6 6 6 4 4 6 6 6 6 5 6 5 4 5 4 3 4 5 6 4 5 5 4 4 2 1 3 2 2 6 5 4 2 3 8 8 5 3 1 2 4 1 5 2 1 3 2 1 1 1 2 3 1 1 4 4 3 7 9 11 12 12 12 10 8 9 10 9
18 13 12 14 9 3 3 4 5 5 5 5 7 8 8 9 9 6 4 5 7 4 6 6 1 4 6 5 4 5 7 4 4 5 4 2 1 2 5 5 5 5 5 8 4 1 2 2 3 2 1 6 4 4 5 8 9 6 3 3 3 1 3 1 1 2 3 2 2 1 3 2 1 1 3 4 2 5 8 10 12 12 11 9 9 9 10 9
13 9 6 3 4 1 3 3 4 5 5 6 7 6 7 10 10 6 4 6 7 5 5 6 4 3 7 7 3 5 7 5 4 4 4 3 2 2 6 5 4 6 3 5 5 1 2 3 1 2 5 2 3 4 2 2 4 5 6 5 4 2 2 1 1 3 3 1 2 2 1 1 1 1 4 5 7 6 8 9 10 11 11 9 9 9 10 10
8 6 1 5 4 0 2 3 4 4 5 7 7 6 7 10 9 6 4 4 5 5 4 7 7 3 5 9 6 4 7 8 7 6 4 3 4 4 6 5 7 6 2 1 6 3 0 1 2 3 4 3 2 1 3 2 4 4 4 2 3 3 1 1 1 3 2 3 1 2 1 1 1 4 5 4 7 2 4 7 8 10 10 9 9 8 8 9
5 5 1 5 2 2 2 5 4 4 6 6 7 10 8 5 7 3 1 4 7 6 5 7 8 5 5 7 6 5 6 8 7 4 4 5 4 4 6 6 9 8 1 2 5 3 1 2 3 3 3 4 2 4 9 9 3 3 4 2 2 3 3 2 1 0 1 1 2 2 1 1 2 0 4 3 1 5 3 4 7 9 10 9 8 9 9 9
5 4 3 5 2 2 3 5 4 5 6 6 9 10 2 4 6 6 3 5 7 7 7 7 7 7 6 6 6 6 5 6 7 5 6 6 5 4 5 6 10 9 4 4 1 5 4 3 4 5 5 5 1 2 10 12 7 8 7 3 3 3 1 1 2 2 2 2 2 1 1 0 3 5 4 4 6 3 6 5 6 7 8 9 9 10 10 9
5 4 2 5 4 3 4 5 5 6 7 8 11 9 1 1 7 8 7 6 7 7 7 7 7 7 7 7 7 7 6 5 7 7 7 7 5 6 7 7 8 7 4 5 2 5 4 3 4 6 6 5 1 2 6 7 7 8 6 4 6 5 2 4 3 2 2 4 2 3 2 2 3 5 5 2 6 7 5 0 7 6 6 8 11 11 10 10
4 5 4 4 5 4 5 5 6 6 6 9 11 8 5 5 6 7 8 7 5 6 7 7 7 7 8 8 8 9 7 4 5 6 8 9 4 3 5 6 5 5 3 1 2 3 2 3 4 5 6 5 0 4 6 6 6 6 6 6 9 10 7 5 4 2 0 2 1 3 1 3 2 3 4 3 1 5 2 4 8 7 6 7 8 9 10 10
4 4 5 5 6 5 5 6 6 6 6 9 10 8 7 7 6 8 9 8 7 7 6 6 7 8 9 9 8 9 9 7 6 4 6 8 6 7 8 6 5 3 3 4 4 0 3 4 5 5 6 5 3 3 3 2 3 5 7 8 8 11 11 6 4 3 1 2 2 2 1 4 4 4 5 3 2 2 4 6 7 5 6 8 7 7 9 10
4 3 4 5 7 5 5 6 7 7 8 9 8 7 8 8 8 8 9 10 9 8 6 5 7 9 9 10 9 8 9 10 9 6 7 7 5 6 9 5 3 4 0 6 5 3 4 4 6 8 7 6 6 5 3 4 6 7 8 10 9 10 11 7 5 4 3 4 3 2 4 5 5 7 7 3 2 1 3 7 7 4 5 8 9 8 9 9
4 4 3 2 4 5 5 6 8 8 8 8 6 5 8 10 9 8 8 8 8 8 7 6 7 8 7 8 8 8 9 10 10 9 9 9 8 7 8 11 9 2 3 1 0 1 4 6 8 11 10 10 11 9 6 7 9 10 12 11 9 9 9 6 4 5 5 5 3 2 4 4 3 9 8 4 3 4 5 7 8 7 6 8 9 10 11 11
4 4 3 2 2 5 4 4 6 8 11 10 7 7 8 9 9 8 7 6 7 8 6 5 8 10 10 9 8 7 9 10 10 10 10 9 8 7 7 9 6 3 3 8 7 2 4 7 8 11 12 12 12 11 10 10 11 12 14 13 11 11 12 9 6 7 8 6 3 2 4 7 4 5 8 6 4 4 4 5 9 10 8 9 11 12 12 12
4 4 3 3 4 6 4 5 5 7 10 9 6 8 10 9 9 11 8 6 7 7 6 6 8 10 13 13 10 8 7 8 8 8 10 8 6 5 6 7 7 7 6 7 5 2 3 5 7 9 11 12 12 11 11 13 13 13 13 14 15 16 15 10 7 9 10 7 6 4 5 8 4 6 11 9 7 6 3 4 11 12 10 10 12 13 13 12
3 4 4 3 5 7 6 6 6 6 6 6 6 7 10 10 10 10 9 8 7 6 7 9 10 11 13 12 12 12 10 9 9 7 9 9 6 4 4 5 6 6 7 6 5 3 1 3 7 8 8 10 12 12 12 13 14 13 13 13 15 17 16 12 9 9 9 9 8 7 7 7 3 10 11 9 8 7 4 4 8 9 10 12 13 13 12 12
7 6 5 4 4 4 5 5 5 5 5 6 6 7 8 11 11 11 10 10 8 6 8 11 11 9 9 9 12 13 9 8 10 9 9 8 7 6 4 4 5 4 2 3 5 3 2 3 6 6 5 7 11 13 14 15 14 12 11 10 10 11 10 8 8 8 8 8 8 6 5 4 3 7 8 8 6 4 4 5 5 5 6 10 14 13 12 12
8 7 4 5 4 3 4 5 6 6 6 6 7 8 9 10 11 11 10 9 8 8 9 10 8 5 5 9 11 11 10 11 12 12 10 10 9 9 7 7 9 9 5 3 3 4 4 3 4 5 5 6 7 10 13 14 12 8 6 6 8 8 9 10 10 10 10 7 5 5 4 3 2 1 2 6 5 2 3 5 5 7 8 6 9 10 10 12
Wind_Direction
13 12 12 13 13 12 9 6 5 3 0 1 0 355 347 338 329 315 312 306 303 305 304 309 311 314 317 315 318 320 315 311 301 267 238 244 0 39 178 247 269 279 279 257 250 258 271 266 269 300 310 325 15 10 333 336 15 35 68 86 81 155 199 284 54 112 126 127 111 109 101 96 96 84 84 82 74 78 75 70 73 73 74 83 94 102 111 107
12 11 11 11 11 12 10 7 4 1 360 356 351 345 335 326 318 312 309 304 302 303 303 308 312 316 317 317 322 323 320 310 277 259 234 84 350 324 285 268 258 253 244 254 254 264 276 294 22 33 21 3 24 355 333 340 16 40 89 99 84 246 222 164 84 100 110 107 106 107 98 88 86 82 80 79 79 80 78 75 79 82 82 79 73 74 103 117
10 10 10 9 9 10 10 8 3 1 357 350 344 336 327 318 312 309 304 304 302 301 303 307 312 316 316 318 322 324 325 300 267 250 97 67 6 348 305 286 251 235 241 258 272 286 301 15 45 41 18 15 24 338 335 319 353 81 126 103 123 237 224 140 106 100 111 112 110 105 91 77 78 85 84 83 78 71 73 76 81 87 85 77 70 73 87 88
8 9 8 8 8 8 10 8 3 0 355 348 339 328 322 316 310 307 305 304 301 302 304 306 312 313 314 317 321 328 314 283 264 97 91 57 51 19 344 317 256 237 248 265 278 282 323 42 50 48 30 14 356 348 316 274 317 95 167 110 144 195 180 101 105 107 105 95 91 92 86 73 73 85 89 90 81 69 74 81 88 92 90 90 91 86 80 75
6 7 7 7 6 6 8 7 4 360 353 347 336 325 317 311 310 307 305 303 303 304 303 308 311 307 311 316 325 330 292 275 96 101 103 93 84 23 11 16 280 240 253 269 275 281 18 54 55 58 52 349 309 340 257 237 90 61 289 97 129 157 120 100 96 96 89 82 86 90 87 81 77 79 76 82 87 84 87 90 91 94 98 96 93 95 85 78
4 5 5 5 5 5 7 7 4 359 353 347 337 326 314 309 309 305 306 306 304 304 305 309 305 303 314 319 329 301 269 32 101 113 100 108 116 51 265 342 259 237 257 267 268 299 23 49 56 59 70 300 275 273 276 164 105 119 87 87 99 105 99 96 80 82 90 93 92 89 91 92 88 81 76 82 91 99 103 107 103 96 99 93 85 86 81 76
2 3 4 4 4 4 5 5 3 359 355 347 338 326 316 310 307 305 307 306 306 308 306 305 300 306 319 323 328 247 249 68 105 102 85 116 141 174 254 266 255 251 254 258 275 14 12 10 22 17 143 277 277 272 343 30 91 111 86 77 79 86 84 82 81 85 89 88 88 93 95 92 91 89 86 89 94 100 105 114 114 104 100 97 90 84 80 79
1 1 2 2 2 3 3 3 1 359 355 349 341 328 318 312 310 309 308 307 307 307 304 302 301 311 323 331 312 250 239 86 104 96 57 330 271 240 298 267 242 251 258 279 7 21 6 355 350 286 163 228 287 294 33 36 43 72 77 74 76 84 82 81 85 91 89 86 93 94 91 90 93 95 91 97 108 112 117 119 110 103 100 96 91 86 82 79
359 360 1 0 1 2 2 1 357 356 355 352 345 332 325 315 311 310 310 312 306 306 303 299 307 320 325 309 270 270 79 88 111 114 351 343 269 220 274 275 243 248 257 40 26 341 25 15 351 339 294 235 271 303 52 69 50 70 78 88 95 85 79 85 86 86 88 93 100 94 91 97 103 99 90 101 116 120 131 123 110 107 103 97 90 86 82 76
359 358 359 360 360 360 0 358 354 353 353 353 349 339 332 320 314 315 317 316 310 310 300 301 322 326 312 258 262 280 99 108 120 140 190 266 236 215 245 262 267 270 266 83 43 349 12 16 17 339 284 288 342 352 43 86 75 71 87 92 95 96 90 94 93 89 87 86 95 97 93 100 111 108 100 111 121 125 129 118 113 115 107 103 100 94 89 85
358 357 358 359 358 358 359 356 352 350 350 352 349 340 334 329 322 321 320 315 316 311 301 311 323 317 300 270 276 17 127 127 93 147 137 282 252 247 276 274 271 296 27 61 20 353 343 16 33 308 304 27 30 21 28 47 45 55 88 98 92 101 101 99 102 102 98 90 100 103 96 94 98 102 112 129 138 136 133 138 149 128 113 109 105 98 94 92
358 357 356 357 357 357 357 354 350 348 348 348 346 336 331 338 334 333 327 316 320 312 306 312 314 332 311 276 282 78 137 116 42 10 69 303 258 320 4 327 278 31 35 25 10 17 349 339 336 333 27 44 34 36 34 35 39 41 55 83 85 93 109 109 112 118 115 116 125 113 92 88 92 106 122 137 147 149 144 147 142 126 120 112 102 95 91 89
357 356 355 355 355 355 355 352 348 347 346 344 343 332 317 332 338 345 343 328 322 312 306 305 315 339 289 281 80 77 55 82 61 42 333 306 345 46 32 344 39 44 0 26 42 21 346 323 322 36 32 57 51 46 49 27 22 27 36 72 75 84 122 114 123 129 124 135 150 146 86 94 106 121 136 148 163 168 148 139 133 126 125 114 106 101 94 90
356 355 354 353 353 353 352 350 346 346 344 341 339 325 298 299 311 331 341 337 325 312 308 301 308 301 262 347 81 89 51 42 219 195 325 24 29 18 18 358 46 84 84 69 42 333 349 334 331 69 51 76 92 75 52 13 5 22 24 73 90 312 128 137 151 134 128 152 156 138 111 121 130 140 149 159 177 173 142 133 133 131 128 116 111 106 100 96
355 354 353 352 352 351 350 349 344 343 341 338 337 320 287 280 293 307 320 327 320 311 313 304 290 246 254 202 114 106 162 235 236 15 13 59 48 334 8 0 23 87 88 90 101 5 8 326 304 94 93 85 94 86 59 348 26 65 49 260 210 123 147 158 143 125 144 153 138 121 123 132 140 153 161 164 175 164 138 134 135 133 129 118 114 111 109 108
354 353 352 351 351 350 349 347 342 341 339 338 336 314 279 279 288 292 302 313 314 305 303 292 227 220 272 38 110 153 223 244 322 51 59 61 47 12 26 335 346 71 79 80 90 41 355 331 322 29 89 73 65 95 149 189 122 121 125 249 213 137 132 135 117 141 163 136 132 134 126 133 144 158 167 166 173 162 140 137 134 132 129 119 114 114 115 118
352 352 352 350 350 349 347 344 341 340 336 339 341 315 282 283 281 284 294 300 304 293 272 274 240 224 263 50 157 216 217 49 302 24 76 37 15 5 352 5 0 40 74 42 44 43 345 334 336 1 52 42 12 167 244 170 160 180 170 247 217 160 112 117 122 151 162 127 138 145 133 136 145 157 167 167 174 164 141 139 139 140 136 123 116 117 123 122
352 350 351 350 349 348 346 344 341 339 336 341 344 323 294 282 280 287 292 291 302 279 260 268 260 250 215 181 222 237 121 85 288 301 95 74 32 20 36 44 9 4 69 41 24 43 339 331 306 323 344 268 226 187 254 281 140 170 173 207 195 161 126 129 149 160 163 144 147 161 144 134 144 156 164 166 179 170 145 144 144 141 135 125 124 125 128 122
352 350 350 349 347 347 346 343 341 339 336 343 346 328 296 277 278 277 270 244 197 208 233 220 226 271 351 164 312 37 55 96 305 281 186 114 58 79 70 58 10 348 46 60 254 167 277 273 259 286 238 247 225 216 244 226 162 176 171 160 147 140 115 126 155 160 152 143 158 181 143 137 151 157 158 167 183 171 143 143 140 134 136 133 130 129 129 125
353 350 350 348 345 346 345 342 342 339 335 338 337 326 295 282 272 236 246 239 218 214 251 208 200 255 309 247 154 92 0 147 244 264 161 89 63 116 89 64 23 354 15 288 219 169 210 259 247 260 238 221 216 223 244 138 157 163 139 152 147 116 102 117 135 133 134 152 164 170 145 143 153 156 161 168 176 163 142 145 143 143 148 140 132 130 131 129
354 351 350 348 343 343 344 341 339 340 337 334 330 328 4 7 339 329 331 277 261 267 280 259 194 249 316 323 90 149 249 209 225 253 87 41 175 117 84 74 34 1 343 304 301 201 210 282 268 267 296 161 187 222 316 47 94 92 75 201 129 98 105 117 126 131 134 163 155 155 146 139 150 154 155 160 167 163 152 158 159 157 152 141 138 135 135 134
354 352 349 348 343 341 342 338 335 342 344 337 337 11 29 15 352 322 326 292 285 253 268 300 293 250 278 314 319 253 253 222 204 193 149 97 146 119 89 99 64 330 319 274 290 260 229 311 341 329 10 29 41 35 10 17 51 78 91 78 68 80 108 114 124 131 124 157 155 144 136 137 150 151 152 161 159 156 168 175 168 159 152 146 143 137 138 139
352 351 349 349 343 338 339 333 328 335 335 338 4 27 5 357 349 323 303 283 282 200 230 256 253 247 207 226 249 231 252 257 239 171 138 100 257 123 96 116 200 214 305 292 3 324 282 12 23 25 28 28 16 27 19 10 44 42 24 64 69 51 82 115 128 126 120 164 109 78 82 147 145 149 160 159 147 164 185 176 162 156 155 153 147 142 144 145
351 349 348 350 344 339 337 324 320 330 318 323 11 22 355 348 348 333 319 279 270 189 220 221 213 245 227 162 189 212 238 277 294 114 112 147 264 116 113 205 196 148 291 330 359 313 346 26 32 28 25 32 1 356 23 8 78 82 22 38 79 95 106 73 79 81 88 183 125 100 153 158 142 158 160 150 155 177 179 160 152 153 155 154 147 146 149 146
350 347 345 350 346 340 332 314 329 342 320 318 6 7 348 347 349 340 333 277 266 192 197 206 201 242 230 133 148 248 253 247 265 289 115 179 295 90 153 193 96 16 285 328 292 298 14 32 54 47 360 15 358 353 24 7 356 129 87 26 54 106 123 88 76 53 30 169 140 135 200 163 159 172 154 151 167 172 166 159 160 156 154 157 149 149 151 145
347 346 344 348 348 343 337 325 342 332 313 333 10 351 340 347 349 341 322 264 262 178 166 179 183 215 246 169 182 255 269 230 181 122 8 334 347 316 184 118 65 256 262 50 346 301 39 50 70 68 335 350 16 19 26 11 329 14 57 22 32 58 39 53 75 50 10 23 35 109 246 166 166 173 155 160 167 164 171 172 170 162 157 163 157 155 153 146
344 344 342 343 349 348 342 327 332 326 320 5 358 338 336 346 344 339 296 260 250 172 155 157 162 217 218 170 189 239 291 44 180 144 125 243 176 263 240 107 97 229 211 165 47 333 37 70 75 55 346 347 348 58 35 10 343 16 49 19 46 66 44 17 54 32 8 23 12 114 217 198 181 170 156 165 167 166 176 178 177 170 165 170 161 159 158 151
342 342 341 339 346 347 334 319 323 324 346 352 339 333 337 337 333 318 260 276 248 169 178 138 112 256 238 187 212 252 270 87 239 165 145 198 165 259 270 138 157 208 202 281 2 99 2 62 92 55 344 355 351 63 75 18 352 28 54 21 51 95 110 128 80 31 52 39 313 259 287 270 195 168 155 167 172 171 181 183 182 177 170 168 160 164 166 159
340 340 338 336 340 347 339 322 305 302 327 336 331 331 326 321 319 278 251 288 224 201 192 118 148 206 233 239 214 254 265 182 182 129 145 209 186 234 293 352 219 241 98 2 7 90 39 55 114 122 329 291 324 32 79 50 10 32 42 22 20 91 118 137 127 102 90 252 226 196 208 233 169 160 158 174 179 178 182 182 185 180 169 165 167 170 165 161
338 337 337 334 336 343 332 310 282 299 322 328 327 323 314 305 288 234 232 271 227 159 144 156 223 193 201 231 216 228 258 231 185 166 185 222 207 199 251 278 258 321 48 41 1 51 73 94 144 152 338 148 22 11 24 44 62 40 28 13 354 16 69 114 149 156 183 302 5 175 190 213 207 155 157 179 179 181 182 180 185 176 165 167 173 170 162 161
335 334 333 329 326 327 318 298 313 335 329 326 326 318 299 276 249 245 219 243 282 162 164 203 215 183 190 220 225 194 236 244 203 190 209 202 211 202 210 234 216 13 32 79 311 344 76 121 173 134 20 56 65 17 326 296 80 64 42 10 359 330 306 140 181 141 79 11 326 305 194 130 108 215 253 201 171 175 178 178 180 171 165 166 168 171 168 157
332 331 328 323 318 314 299 288 318 329 324 324 323 307 274 237 225 255 210 160 263 172 229 243 195 197 206 220 242 204 224 253 195 167 210 192 208 222 205 176 118 323 307 179 237 54 56 295 270 132 114 61 83 40 281 273 61 43 17 344 350 338 350 6 346 70 76 147 256 295 284 116 85 237 230 187 149 165 172 170 172 165 161 163 164 175 170 150
330 328 324 322 312 298 288 290 307 315 319 320 311 265 265 253 230 253 235 175 145 105 309 278 202 194 208 213 243 219 204 260 225 164 202 199 220 239 218 174 191 226 272 222 196 146 113 294 285 183 141 106 105 162 292 46 56 31 357 340 345 343 7 13 348 41 69 128 135 309 281 44 11 273 183 123 116 149 162 156 157 156 155 160 164 171 168 152
327 326 325 322 307 291 287 292 298 308 315 311 287 233 245 260 254 262 265 238 164 150 263 281 263 198 216 232 247 227 203 222 221 209 204 205 236 246 237 243 226 237 280 281 191 69 50 340 283 256 116 130 138 128 255 282 84 76 331 335 29 324 10 9 318 21 45 76 94 354 304 78 20 341 85 102 111 124 141 138 139 146 149 158 165 166 169 156
328 329 323 311 299 290 288 290 291 303 308 291 264 237 225 243 246 244 266 269 198 182 219 247 281 243 227 246 263 267 259 211 198 233 226 206 247 260 224 254 244 240 284 289 78 59 17 303 247 179 89 183 174 138 217 255 108 137 195 168 173 182 137 199 284 42 38 358 88 50 262 171 259 305 34 107 132 126 132 129 134 146 148 161 172 166 166 151
331 330 320 298 285 278 275 292 298 299 295 274 246 234 228 240 247 248 307 310 320 327 230 206 217 250 234 211 254 265 235 205 207 249 241 214 227 249 243 262 239 211 241 288 358 21 287 288 222 175 166 201 182 150 187 186 121 173 187 220 245 165 115 245 346 76 68 336 83 153 233 292 270 343 8 344 146 136 135 132 142 151 150 166 174 163 166 153
331 327 314 292 283 285 282 299 306 288 277 267 245 245 251 249 256 279 354 325 335 351 299 255 184 230 236 206 233 224 174 187 207 215 250 242 208 227 238 250 244 241 278 308 348 9 306 315 186 208 207 162 136 211 189 168 178 222 233 257 248 107 65 5 305 79 48 335 82 125 90 51 33 54 344 304 171 145 142 141 148 149 153 170 170 160 164 156
323 312 298 279 263 275 304 305 304 281 263 255 248 253 262 262 270 303 357 315 314 316 278 280 206 231 261 248 225 203 189 183 183 206 245 231 162 277 269 249 221 230 288 313 306 169 301 301 157 211 325 127 156 260 217 184 199 228 291 293 240 225 46 30 238 38 33 0 346 355 125 105 220 204 0 320 235 164 153 153 155 153 160 172 168 165 164 156
304 289 292 247 181 205 319 314 288 269 248 242 244 244 254 262 273 295 314 305 301 283 259 265 251 256 287 282 253 229 240 231 196 221 244 209 154 333 300 294 262 226 227 303 296 286 339 323 145 341 347 78 186 250 256 194 204 239 279 297 296 305 28 47 330 42 69 160 318 300 169 104 256 113 46 325 267 207 164 163 162 157 164 170 169 174 167 157
297 282 276 112 113 16 319 298 273 249 239 240 246 248 245 253 260 256 259 276 282 277 269 270 266 248 270 276 263 244 261 258 232 219 226 214 178 207 246 273 280 261 169 297 287 296 24 245 264 288 299 291 258 291 295 228 172 217 260 317 352 326 312 268 37 62 128 178 188 259 209 100 230 148 129 236 263 257 143 169 166 156 162 170 171 169 163 157
296 284 171 116 76 337 294 269 249 226 239 240 244 253 260 288 291 274 202 247 262 271 275 286 292 275 250 260 254 243 262 274 263 238 237 230 194 213 233 246 265 265 209 235 265 313 323 242 283 286 261 272 352 16 298 269 228 263 264 182 186 234 269 310 343 2 252 192 167 210 166 131 289 44 128 170 50 28 346 208 166 151 156 163 165 159 153 153
275 263 142 126 140 297 271 253 238 231 243 241 241 248 278 13 294 280 279 241 243 259 262 267 282 279 271 273 271 258 246 265 272 255 245 235 207 219 208 217 262 279 305 275 284 35 352 303 297 295 292 294 50 129 263 272 302 305 288 277 251 233 179 293 274 256 293 301 221 187 46 232 290 342 31 91 111 136 251 225 147 146 162 156 153 155 150 149
249 257 182 139 157 245 259 248 247 241 237 246 254 257 290 289 255 261 273 255 235 238 243 249 261 263 268 278 285 274 255 269 276 264 267 261 221 212 195 194 242 261 274 279 351 31 344 291 276 285 293 287 164 148 265 297 334 302 283 304 297 287 238 235 279 319 331 327 355 78 49 256 282 333 348 58 134 166 242 260 111 138 168 150 149 155 152 149
269 280 262 170 154 212 239 236 243 242 238 248 257 267 277 269 262 259 256 253 243 237 239 249 252 249 256 261 267 273 278 291 276 266 282 284 278 257 221 186 209 250 267 311 56 50 321 285 281 291 295 277 223 32 338 343 352 318 310 318 310 309 295 267 294 321 291 337 49 114 166 233 243 309 305 307 120 141 121 65 106 144 159 140 148 156 150 148
287 272 249 213 182 196 231 246 264 282 289 270 254 255 265 266 266 267 268 271 266 252 248 252 253 256 261 257 255 264 275 277 271 282 286 277 296 301 260 186 150 258 313 39 57 16 276 292 295 295 303 302 324 359 323 299 312 303 303 302 299 308 310 304 299 291 321 342 329 104 156 226 225 262 278 310 20 105 117 90 100 140 140 130 147 159 152 152
284 257 231 204 188 202 240 259 271 284 295 289 263 240 252 261 251 241 250 266 271 267 269 267 259 260 261 261 262 258 256 258 259 272 281 270 272 283 277 276 258 246 80 64 44 337 292 287 285 279 286 293 289 287 276 276 288 287 283 280 283 303 318 332 321 303 331 328 317 137 187 219 206 227 237 196 136 213 149 108 99 105 121 130 149 162 157 154
271 266 256 204 184 207 227 237 247 252 263 284 289 242 236 252 259 235 212 227 254 259 260 262 260 265 269 270 273 273 268 266 257 251 258 266 267 263 270 277 271 257 69 49 284 299 278 275 277 277 279 279 278 283 282 268 270 276 276 273 274 286 293 297 294 291 290 288 289 178 228 258 189 197 203 170 156 185 165 139 128 133 151 151 152 159 161 158
246 264 293 346 260 222 221 235 248 249 249 260 289 286 253 238 249 245 205 207 251 248 238 252 257 261 264 258 256 264 270 272 273 270 263 259 270 280 280 273 272 55 18 268 247 231 265 267 271 274 277 278 281 289 286 268 264 276 286 292 297 285 271 262 259 277 285 279 285 287 266 290 294 185 163 143 164 187 185 158 136 135 154 161 157 161 163 164
253 277 294 321 277 258 296 328 299 267 252 247 257 274 268 250 246 249 228 216 248 243 226 239 251 257 260 258 257 258 260 264 273 286 286 284 305 333 327 310 325 13 356 288 279 313 284 277 289 289 286 285 284 282 280 278 278 284 294 311 324 317 309 318 316 292 292 292 298 318 301 301 333 127 149 160 174 190 214 152 139 145 159 161 160 165 168 174
277 314 309 294 270 264 289 309 291 268 259 254 247 255 268 265 255 255 247 231 236 245 245 244 245 248 250 256 259 249 243 256 264 269 276 283 302 318 301 289 303 350 7 339 321 328 294 319 334 329 316 304 295 286 283 286 288 292 299 311 325 327 327 339 331 294 290 301 307 324 321 317 46 122 155 172 171 181 190 148 145 152 159 163 167 173 179 184
280 315 325 306 285 266 260 259 260 261 255 250 243 238 253 260 257 260 261 249 237 236 249 260 264 263 264 282 281 265 263 296 306 302 295 294 301 295 278 260 256 266 318 309 302 297 254 296 321 318 303 297 298 301 302 300 296 294 297 296 298 307 310 304 296 295 306 311 304 302 301 308 91 130 161 161 157 173 160 144 137 108 121 159 173 179 188 187
277 289 284 280 287 294 271 242 233 243 246 251 253 240 231 241 254 263 267 265 254 235 240 267 296 321 301 298 300 303 325 339 326 315 313 312 305 289 279 277 272 270 261 240 274 285 271 283 294 279 269 275 297 317 320 314 301 291 300 296 284 300 311 300 301 313 315 307 294 285 295 326 35 63 128 136 135 146 154 158 147 97 90 130 170 181 198 191